Wind_Speed
81 83 84 85 89 92 95 96 97 100 99 100 101 100 98 99 100 98 98 98 100 101 103 103 99 98 98 99 100 99 99 102 101 101 103 103 104 105 97 98 99 100 98 94 89 85 87 87 85 91 88 87 86 80
83 86 86 86 86 89 91 93 95 97 101 104 103 103 105 104 100 98 100 98 99 99 98 100 99 100 100 100 99 103 105 103 106 104 102 101 103 96 99 99 97 94 91 86 80 84 86 90 89 88 87 84 80 78
89 90 89 90 90 89 91 92 93 96 98 100 99 101 103 102 97 97 96 101 103 100 99 94 99 102 101 105 105 105 105 104 105 104 98 95 98 103 102 98 92 87 81 76 74 82 84 84 85 86 83 81 77 77
83 90 93 92 92 95 94 93 93 93 93 94 98 98 98 99 98 99 98 101 101 100 103 105 105 104 107 106 104 104 105 105 106 106 99 95 98 99 98 90 84 75 71 67 71 77 76 83 83 76 76 73 76 71
56 70 89 96 99 97 97 96 95 95 94 94 93 94 95 97 97 98 99 101 101 103 101 104 108 108 108 105 105 105 106 106 103 98 97 95 89 86 84 77 67 69 66 64 68 72 73 77 77 71 69 60 63 60
51 56 65 84 96 97 106 102 102 100 98 97 97 95 95 98 96 93 97 101 102 103 104 110 112 112 109 108 108 103 105 99 94 90 89 85 77 70 65 62 63 68 63 63 62 70 71 72 69 66 63 55 55 52
42 50 56 60 66 82 88 98 102 99 101 102 102 100 97 101 99 94 93 94 96 97 100 106 108 107 107 105 100 94 89 89 84 78 72 65 61 56 58 58 61 60 58 58 60 68 69 65 67 61 55 47 38 38
41 47 52 59 61 64 71 82 91 94 101 100 100 100 99 98 94 92 93 91 89 88 87 86 86 85 84 79 77 74 71 69 65 61 56 52 52 51 53 56 55 56 57 55 61 64 61 58 61 55 46 47 38 30
33 39 46 54 60 64 65 66 75 83 88 91 95 92 93 94 93 91 88 87 85 82 81 81 75 71 70 72 71 67 62 56 51 47 47 48 49 49 52 50 51 54 52 58 61 61 54 52 55 48 38 44 39 43
28 36 41 46 51 56 62 67 69 71 78 85 85 83 87 84 82 83 85 81 78 76 78 76 72 69 67 64 58 52 48 44 43 46 44 45 48 47 47 47 52 51 51 58 59 55 49 46 49 40 34 42 41 39
25 29 35 41 44 50 55 61 68 72 73 74 78 76 78 80 77 75 69 71 70 67 66 65 61 58 54 50 47 45 43 42 39 40 41 41 45 42 44 48 48 52 54 55 52 49 45 39 45 35 33 35 35 35
24 26 30 35 41 46 49 56 61 66 70 72 72 68 65 63 67 64 60 59 59 57 56 53 46 43 44 44 43 44 42 38 37 39 39 39 40 40 44 43 49 53 53 49 45 44 41 35 40 35 31 31 32 28
24 25 27 33 36 40 45 50 56 62 67 69 67 63 60 59 56 52 60 60 56 55 49 47 46 42 43 43 42 42 37 35 36 35 36 35 36 37 40 46 50 49 46 42 38 38 36 31 35 37 29 29 28 26
25 25 26 29 33 38 41 45 50 56 62 68 70 66 62 53 47 51 53 54 55 55 52 49 47 44 43 41 39 37 35 34 31 33 31 31 32 37 42 44 43 40 38 35 33 33 28 29 30 30 29 24 26 27
24 25 28 28 30 35 40 42 45 52 57 62 67 67 58 54 54 59 58 50 53 55 53 50 49 46 43 40 39 35 33 29 29 27 25 25 31 34 36 35 33 31 30 28 26 25 25 25 25 26 26 27 27 26
25 26 26 28 29 32 37 40 41 44 52 55 53 57 60 58 57 59 62 57 54 54 58 57 51 49 43 40 40 36 31 29 27 22 20 22 24 27 26 25 24 24 25 24 22 22 22 22 22 22 23 24 25 26
25 26 26 27 29 30 34 38 40 38 41 45 47 57 61 62 62 66 64 59 54 57 57 59 54 50 44 42 41 34 32 30 23 21 18 17 16 16 17 18 18 16 15 16 16 17 17 18 18 19 20 21 23 25
25 26 27 28 27 29 30 33 36 34 36 46 51 55 61 66 70 70 68 63 58 59 59 58 54 50 45 45 40 36 35 30 26 21 16 13 9 9 11 12 12 13 14 14 14 15 16 17 18 18 20 21 21 22
25 25 27 27 27 28 27 28 32 36 43 44 47 52 61 70 73 76 70 66 64 63 64 61 54 49 50 46 40 39 38 31 28 22 18 14 10 8 7 8 11 13 15 16 18 20 21 21 21 20 20 20 21 23
26 25 25 25 27 27 25 28 35 38 42 45 47 53 60 74 81 81 76 75 69 68 67 59 56 58 51 46 45 44 37 34 30 25 23 17 14 12 8 6 8 10 12 15 19 23 26 28 30 28 26 25 25 26
25 25 25 24 26 26 27 31 37 41 43 44 49 55 61 77 77 81 80 82 76 71 65 63 63 59 53 50 49 46 39 37 33 29 26 20 16 14 10 6 6 7 10 13 17 21 24 28 31 33 32 29 27 26
24 25 23 23 25 26 29 33 38 40 42 46 50 56 62 71 75 79 86 77 72 71 69 67 65 60 55 55 54 48 44 42 37 33 30 24 20 18 16 11 8 9 10 12 15 19 22 26 30 35 37 37 33 32
23 23 23 23 25 28 32 31 34 39 44 48 52 55 61 66 75 78 69 71 73 75 72 70 68 63 60 59 55 51 47 44 41 37 33 28 25 21 19 14 11 10 11 12 14 16 20 24 28 31 36 40 41 38
23 24 23 23 27 30 28 32 36 39 44 47 51 54 58 65 73 68 73 77 77 76 73 73 70 65 63 61 59 55 51 48 44 40 37 32 28 24 22 18 15 12 12 12 14 15 18 21 24 28 33 36 41 43
26 28 24 25 27 29 30 32 36 38 43 48 51 52 56 61 66 76 78 81 82 80 78 78 73 69 68 67 63 57 52 51 49 45 40 36 32 27 25 22 19 15 14 14 15 15 17 19 22 25 29 32 36 40
29 30 27 26 29 30 31 32 36 39 41 44 48 52 55 58 65 76 81 85 87 85 82 79 75 73 71 70 65 59 57 55 52 48 45 40 35 31 29 26 22 19 16 15 15 15 16 18 20 22 25 28 32 34
32 32 29 27 29 32 31 33 35 38 40 44 50 53 57 60 69 80 86 88 87 84 82 78 72 71 71 71 66 61 55 54 54 52 46 42 40 37 33 30 27 23 21 19 18 17 18 19 20 21 23 26 28 30
34 34 32 26 30 34 32 32 35 37 41 45 48 53 57 69 79 79 83 86 86 83 82 79 74 75 75 72 68 61 57 55 53 53 52 49 46 41 37 35 31 28 26 23 23 22 21 21 21 22 23 24 27 29
36 35 33 29 32 33 32 33 37 41 44 46 50 57 67 73 74 79 89 90 88 85 84 79 78 79 78 74 69 63 60 59 58 57 57 54 48 45 41 38 36 34 31 28 27 27 26 25 24 24 25 25 26 28
38 35 35 32 33 36 38 37 43 45 44 48 52 58 65 69 72 80 88 90 90 87 84 81 81 80 78 74 70 66 63 60 58 56 54 54 53 48 45 45 42 39 37 34 32 32 32 31 29 29 28 28 28 28
40 38 38 36 37 41 40 40 41 44 45 48 52 60 68 68 69 76 86 90 91 90 87 84 84 84 82 78 74 70 67 64 61 59 58 56 54 53 53 50 46 44 42 40 38 36 36 35 35 34 33 32 31 31
39 41 40 39 39 42 42 40 39 40 45 46 53 61 71 72 73 76 88 94 95 95 90 88 87 87 85 80 76 72 70 67 63 61 60 58 56 55 54 52 51 49 47 46 43 41 41 40 40 39 37 36 35 34
42 42 41 41 39 39 41 40 38 39 44 49 55 62 73 75 76 78 86 93 95 95 95 92 89 88 87 84 80 76 73 71 68 65 62 61 60 58 56 54 53 51 49 49 48 46 46 44 43 42 41 40 38 37
Wind_Direction
221 220 220 222 222 223 224 224 225 226 227 227 230 233 234 236 239 239 243 245 247 249 250 252 254 259 261 263 265 268 272 276 280 283 284 287 292 293 295 299 302 302 302 304 306 308 306 305 305 307 311 314 313 312
226 225 224 223 222 222 223 225 225 225 225 228 229 231 234 240 240 239 241 243 245 247 251 255 256 260 261 263 266 269 272 273 276 281 285 287 291 293 297 299 300 300 301 303 305 305 306 305 307 308 313 315 317 316
230 227 226 226 225 225 225 226 226 228 229 231 231 230 230 235 236 237 237 242 243 245 249 251 257 260 261 264 268 271 275 276 279 285 288 288 289 294 296 296 297 299 300 302 304 302 305 305 308 314 318 320 319 318
233 234 231 228 228 228 227 229 230 231 232 233 233 235 236 236 236 237 239 240 242 241 245 248 254 259 259 261 265 268 271 278 281 283 284 287 288 292 292 294 295 296 299 302 301 302 306 309 311 317 320 323 317 320
229 233 235 233 230 230 232 233 232 234 234 235 235 236 236 237 238 239 238 241 242 243 243 246 250 254 259 262 266 267 270 274 278 279 284 288 288 288 289 290 293 295 298 300 301 302 306 310 312 321 321 323 318 317
229 230 232 235 233 236 235 238 237 237 239 236 238 238 241 239 240 240 242 243 244 246 245 245 249 251 257 261 265 268 271 273 277 279 283 282 283 283 286 289 291 293 297 300 303 304 308 311 314 323 326 332 323 322
234 230 230 233 233 237 236 239 237 238 237 238 239 240 241 240 242 244 245 245 247 248 249 250 252 255 257 261 264 266 271 275 275 274 274 276 277 282 285 287 287 290 295 300 304 307 311 313 316 323 329 335 338 339
237 239 236 237 236 235 237 241 239 240 240 238 240 241 242 241 242 244 245 247 250 252 252 253 255 256 258 261 266 268 269 269 268 269 268 272 276 280 281 283 286 291 297 300 304 307 308 311 314 321 330 346 353 4
242 239 239 240 240 238 237 237 240 242 241 243 242 240 244 243 243 245 246 249 250 251 253 254 256 257 259 263 264 265 263 261 262 262 266 271 277 280 280 282 287 293 297 301 306 305 309 312 314 317 332 345 4 5
247 243 240 239 238 239 237 235 236 239 243 242 244 245 247 244 244 246 247 248 250 251 255 255 255 257 257 257 256 255 255 253 255 261 268 272 276 277 279 284 291 293 298 301 301 302 306 308 308 314 334 343 356 3
265 250 242 241 240 240 238 238 236 238 240 241 243 244 244 243 243 245 245 244 246 244 246 248 247 248 247 247 247 247 249 255 257 263 268 271 271 274 280 287 291 295 298 300 298 300 303 307 306 312 319 330 346 359
267 265 257 244 237 236 236 235 236 233 235 236 239 235 236 235 240 237 238 240 239 237 238 242 241 237 234 235 242 247 251 254 258 260 266 265 269 277 284 288 292 296 297 296 295 297 302 305 300 303 307 315 333 344
269 269 265 258 251 241 236 234 233 233 230 229 231 231 228 229 230 231 236 235 232 235 234 233 232 229 231 235 242 245 247 249 252 258 260 263 275 283 287 291 294 295 295 296 295 295 298 297 295 301 294 302 314 323
272 270 270 266 256 251 244 237 234 233 232 226 224 225 222 218 223 237 239 235 232 234 233 229 225 226 230 237 240 240 240 242 248 251 257 272 282 287 291 293 293 295 298 296 292 292 296 295 299 300 300 295 300 306
269 271 270 269 265 257 251 242 235 234 232 230 227 224 218 220 224 230 232 224 228 229 225 226 225 223 226 232 235 233 234 235 239 245 262 277 289 294 296 297 298 300 302 300 300 300 301 299 296 300 298 302 299 299
270 271 272 274 270 262 256 250 242 235 233 234 230 225 220 217 217 221 227 224 219 221 220 223 226 224 222 225 227 226 221 223 228 244 261 282 295 303 309 311 311 308 308 310 313 313 310 306 306 302 296 292 292 296
272 274 274 274 274 270 260 253 246 237 235 234 227 220 215 207 207 213 218 212 212 211 213 216 221 220 217 219 221 213 210 214 221 233 252 275 292 312 330 336 327 321 321 322 326 326 325 322 316 313 309 301 295 294
275 276 277 277 278 276 265 253 248 241 231 226 220 215 208 206 205 208 207 204 201 208 207 209 213 214 210 213 208 204 205 208 215 223 238 253 278 316 341 346 357 9 15 15 10 4 357 350 341 333 326 320 315 309
276 278 280 281 281 278 268 250 239 234 232 225 219 214 208 200 202 204 201 200 198 205 203 203 207 210 208 204 198 201 202 204 209 217 225 232 250 278 315 343 9 23 29 30 31 29 24 16 7 355 344 335 327 321
279 281 282 284 282 279 264 245 234 229 228 223 217 212 208 204 203 203 199 197 197 199 197 196 204 209 201 194 197 199 198 202 206 215 221 228 241 254 266 297 340 358 13 23 26 30 28 24 19 12 3 355 347 339
281 284 286 285 284 277 257 239 231 226 225 219 216 211 210 208 208 204 200 201 200 195 189 195 205 205 194 193 195 197 198 202 205 212 219 224 232 238 242 266 309 340 354 6 14 18 22 23 22 20 17 10 3 354
282 285 288 287 284 272 253 240 232 225 219 218 215 213 211 210 210 205 205 205 198 189 187 195 203 198 192 194 194 195 198 201 206 212 216 217 220 230 240 246 276 306 330 348 1 7 12 16 19 21 21 20 17 13
283 286 288 285 278 265 250 241 233 225 218 218 216 211 210 210 209 212 209 196 191 185 189 195 198 193 193 192 193 198 200 202 205 211 216 216 217 229 236 246 261 285 309 330 343 353 0 5 10 15 19 22 23 22
283 285 284 279 273 263 252 242 232 225 219 218 215 212 211 210 211 211 199 188 189 185 189 196 196 191 192 191 197 200 200 202 206 209 214 217 219 226 235 244 251 269 289 313 328 340 351 358 4 10 14 17 21 23
279 279 277 271 270 262 250 240 234 228 220 217 214 212 211 209 208 208 198 188 187 184 190 197 194 191 191 195 198 198 200 203 207 211 213 217 220 225 233 240 248 259 275 297 313 327 340 348 356 2 8 12 15 18
276 276 275 270 268 263 250 242 236 227 220 218 215 213 208 204 206 206 196 190 190 187 191 196 192 190 193 197 198 199 202 205 208 211 214 216 219 226 232 237 246 255 266 282 299 312 323 332 342 351 359 4 8 11
274 277 276 270 268 264 257 246 238 234 223 215 213 210 206 204 206 200 194 189 190 190 194 196 191 191 196 201 200 202 204 208 210 214 216 219 222 225 229 236 243 251 261 271 283 296 308 318 327 336 344 351 357 1
275 276 275 272 270 266 261 250 242 235 226 217 210 205 203 205 208 207 198 192 192 194 196 194 190 193 198 201 202 203 206 209 212 216 218 221 223 225 229 235 241 248 254 263 274 284 295 306 316 324 331 337 343 348
277 278 277 273 271 268 261 250 240 233 225 219 209 202 204 206 207 203 197 195 196 197 196 192 191 196 200 202 203 204 208 211 213 216 220 222 225 228 231 235 240 246 252 259 268 277 285 293 303 310 317 324 329 334
277 277 275 271 269 263 254 245 239 233 226 218 214 205 204 206 208 206 202 199 198 199 197 192 193 199 201 203 205 208 210 213 216 219 222 225 227 230 235 237 240 244 250 256 263 270 278 285 292 298 305 311 317 322
275 275 274 270 265 259 252 245 238 237 229 221 215 209 206 207 208 209 205 202 201 201 198 194 197 201 202 204 206 208 210 213 216 219 222 224 226 230 235 239 242 246 250 254 259 265 272 278 284 290 296 301 307 313
274 273 272 270 264 258 253 244 237 232 230 222 215 211 208 208 208 210 206 204 203 204 203 200 201 203 204 206 208 210 213 217 219 222 224 226 228 231 235 239 242 245 250 254 258 262 268 273 279 284 289 293 298 304
271 270 268 265 259 253 249 243 234 227 227 224 215 211 208 206 207 210 209 208 208 209 207 204 203 205 207 208 211 213 215 218 221 224 226 228 229 232 235 238 242 246 249 253 257 261 264 269 274 278 282 286 292 297
Height
10287 10297 10306 10316 10326 10336 10346 10357 10367 10379 10392 10404 10414 10424 10436 10442 10453 10464 10471 10478 10484 10491 10499 10505 10509 10514 10517 10520 10524 10525 10529 10528 10527 10526 10526 10523 10520 10513 10507 10501 10496 10485 10473 10464 10453 10437 10421 10412 10408 10379 10370 10361 10342 10332
10272 10281 10290 10301 10311 10321 10331 10342 10350 10361 10374 10385 10397 10406 10416 10423 10434 10445 10455 10460 10467 10474 10481 10483 10490 10497 10501 10505 10509 10507 10511 10512 10511 10511 10511 10507 10503 10496 10490 10485 10478 10468 10459 10448 10439 10421 10410 10396 10385 10371 10356 10341 10327 10309
10258 10267 10275 10285 10294 10304 10314 10325 10335 10346 10356 10367 10377 10387 10397 10405 10415 10424 10435 10441 10451 10458 10463 10470 10471 10479 10483 10488 10488 10489 10492 10491 10492 10491 10493 10492 10486 10481 10472 10465 10459 10454 10443 10437 10428 10409 10398 10384 10374 10358 10340 10324 10308 10293
10243 10251 10260 10269 10278 10288 10298 10307 10316 10327 10338 10348 10359 10369 10379 10387 10396 10405 10415 10422 10431 10440 10449 10455 10458 10460 10464 10470 10474 10476 10474 10474 10474 10475 10474 10474 10471 10465 10456 10450 10444 10435 10432 10426 10415 10400 10389 10368 10359 10351 10333 10314 10296 10280
10223 10234 10243 10251 10260 10270 10280 10289 10298 10308 10318 10327 10338 10349 10358 10367 10377 10386 10396 10403 10412 10419 10431 10436 10439 10444 10447 10451 10456 10459 10460 10462 10460 10460 10459 10456 10454 10450 10439 10434 10429 10419 10418 10415 10404 10388 10379 10367 10352 10341 10327 10317 10293 10277
10207 10215 10222 10235 10243 10253 10262 10271 10280 10289 10298 10306 10317 10326 10336 10345 10355 10365 10376 10384 10393 10400 10409 10418 10422 10426 10431 10434 10438 10441 10444 10444 10443 10443 10441 10439 10438 10433 10426 10421 10415 10407 10404 10400 10392 10375 10367 10355 10342 10333 10317 10305 10284 10268
10191 10198 10204 10214 10222 10233 10244 10252 10260 10268 10279 10286 10296 10305 10314 10325 10335 10345 10356 10364 10372 10381 10390 10399 10406 10412 10415 10418 10422 10423 10425 10425 10428 10425 10423 10423 10420 10419 10412 10409 10405 10397 10393 10387 10379 10366 10354 10344 10333 10325 10314 10300 10282 10266
10178 10183 10188 10195 10202 10211 10222 10231 10240 10248 10255 10265 10276 10283 10294 10304 10316 10327 10338 10347 10354 10362 10370 10380 10386 10390 10394 10400 10402 10405 10408 10409 10410 10409 10406 10407 10407 10405 10401 10398 10392 10385 10380 10374 10367 10358 10350 10339 10329 10323 10314 10298 10278 10265
10165 10169 10173 10179 10184 10192 10200 10209 10220 10228 10237 10244 10254 10262 10274 10286 10296 10307 10320 10330 10338 10346 10353 10360 10366 10373 10376 10379 10385 10389 10391 10392 10394 10393 10394 10395 10393 10391 10389 10385 10380 10375 10369 10360 10352 10345 10338 10331 10324 10319 10310 10298 10282 10268
10155 10156 10159 10164 10169 10174 10181 10189 10198 10206 10214 10223 10231 10241 10253 10265 10278 10290 10300 10312 10321 10328 10332 10338 10347 10355 10359 10364 10369 10372 10374 10376 10380 10380 10383 10383 10380 10380 10375 10372 10367 10363 10358 10350 10342 10335 10329 10324 10320 10315 10305 10297 10286 10274
10143 10145 10147 10150 10153 10158 10164 10171 10178 10187 10196 10204 10213 10223 10237 10248 10259 10272 10283 10293 10303 10310 10315 10320 10333 10339 10344 10348 10351 10356 10361 10365 10369 10370 10370 10372 10368 10368 10364 10361 10356 10350 10344 10338 10330 10324 10320 10317 10313 10308 10303 10298 10289 10279
10133 10133 10134 10137 10140 10143 10148 10154 10159 10167 10177 10185 10195 10206 10219 10229 10241 10256 10267 10277 10282 10292 10297 10307 10318 10324 10327 10334 10341 10346 10350 10355 10358 10358 10361 10360 10359 10357 10354 10350 10344 10337 10332 10326 10320 10314 10311 10309 10307 10304 10299 10295 10288 10282
10123 10123 10122 10122 10124 10128 10132 10137 10143 10148 10154 10164 10173 10186 10199 10212 10227 10239 10247 10253 10266 10275 10282 10292 10301 10309 10317 10324 10330 10334 10340 10345 10347 10350 10350 10351 10349 10347 10342 10337 10332 10326 10319 10314 10310 10307 10303 10301 10301 10298 10295 10290 10286 10282
10113 10113 10112 10111 10111 10113 10116 10120 10126 10130 10137 10144 10153 10166 10178 10201 10214 10223 10226 10236 10251 10259 10269 10279 10288 10297 10305 10313 10320 10326 10331 10335 10339 10340 10342 10342 10340 10336 10331 10325 10320 10314 10308 10304 10301 10299 10295 10293 10293 10292 10290 10286 10282 10279
10104 10103 10101 10101 10100 10100 10101 10104 10110 10115 10120 10126 10136 10148 10170 10182 10193 10203 10208 10221 10233 10244 10255 10267 10276 10285 10294 10303 10310 10317 10321 10327 10330 10333 10334 10334 10331 10327 10321 10315 10309 10304 10300 10297 10293 10290 10287 10286 10285 10284 10282 10280 10278 10275
10093 10092 10092 10091 10090 10089 10088 10090 10094 10099 10105 10113 10126 10142 10150 10161 10175 10182 10188 10203 10217 10229 10241 10254 10264 10274 10283 10293 10300 10306 10313 10318 10323 10325 10327 10326 10324 10319 10313 10307 10301 10298 10294 10290 10286 10283 10281 10279 10277 10275 10274 10272 10270 10268
10082 10082 10081 10079 10079 10078 10078 10080 10083 10090 10097 10108 10115 10119 10130 10143 10154 10162 10172 10185 10202 10215 10225 10238 10252 10262 10273 10282 10289 10297 10304 10309 10314 10317 10319 10319 10318 10314 10308 10303 10299 10295 10291 10287 10283 10280 10277 10274 10271 10268 10266 10264 10261 10258
10072 10072 10070 10069 10068 10067 10067 10068 10072 10080 10086 10088 10097 10103 10113 10124 10134 10143 10157 10172 10185 10199 10211 10225 10240 10253 10263 10270 10279 10288 10295 10301 10306 10310 10312 10313 10312 10310 10307 10304 10300 10295 10290 10286 10283 10279 10275 10271 10268 10264 10261 10257 10254 10250
10061 10061 10060 10059 10057 10056 10057 10059 10062 10065 10064 10071 10080 10091 10100 10107 10117 10128 10145 10159 10169 10182 10198 10214 10231 10245 10248 10260 10272 10279 10286 10292 10298 10302 10305 10307 10307 10306 10306 10304 10300 10296 10292 10289 10284 10280 10275 10271 10267 10262 10258 10253 10248 10244
10050 10050 10050 10049 10046 10046 10046 10047 10048 10049 10051 10056 10066 10075 10083 10091 10099 10114 10130 10143 10155 10170 10186 10207 10222 10226 10240 10251 10260 10269 10277 10284 10290 10295 10298 10300 10301 10302 10302 10301 10299 10297 10294 10290 10286 10280 10276 10271 10266 10260 10255 10249 10243 10237
10040 10039 10039 10038 10036 10035 10034 10034 10034 10036 10038 10047 10053 10061 10068 10075 10087 10102 10117 10127 10141 10162 10182 10196 10205 10218 10231 10240 10251 10260 10269 10275 10281 10286 10290 10293 10296 10297 10298 10297 10296 10295 10292 10289 10285 10281 10277 10272 10267 10261 10255 10248 10241 10234
10030 10029 10028 10027 10025 10022 10020 10021 10022 10027 10031 10036 10042 10049 10058 10067 10080 10093 10103 10116 10139 10158 10170 10180 10193 10210 10221 10230 10239 10250 10257 10264 10272 10278 10282 10285 10289 10291 10292 10292 10292 10291 10290 10287 10284 10281 10276 10272 10267 10262 10255 10248 10240 10233
10019 10019 10017 10016 10013 10008 10007 10011 10014 10017 10021 10026 10032 10042 10050 10062 10075 10079 10096 10119 10133 10144 10156 10168 10182 10198 10209 10221 10233 10240 10248 10255 10262 10269 10274 10278 10281 10284 10287 10287 10287 10287 10286 10284 10282 10279 10276 10272 10267 10262 10256 10249 10242 10235
10009 10007 10006 10004 10001 9998 10000 10002 10003 10007 10012 10018 10026 10035 10042 10050 10058 10074 10092 10106 10122 10130 10146 10159 10173 10188 10199 10212 10221 10227 10236 10245 10253 10259 10265 10270 10273 10277 10280 10281 10282 10282 10282 10281 10280 10277 10274 10271 10267 10262 10256 10251 10245 10239
9996 9995 9995 9993 9990 9989 9990 9992 9995 10000 10004 10009 10017 10025 10032 10041 10056 10070 10085 10097 10107 10119 10133 10143 10161 10176 10188 10198 10208 10218 10227 10234 10241 10249 10255 10260 10265 10269 10272 10275 10276 10277 10277 10277 10276 10274 10272 10270 10266 10262 10257 10253 10248 10243
9984 9984 9984 9985 9983 9982 9982 9985 9989 9992 9996 10004 10011 10016 10025 10037 10050 10064 10072 10080 10093 10104 10118 10135 10153 10164 10176 10187 10198 10208 10213 10221 10231 10238 10244 10250 10256 10260 10264 10267 10269 10271 10272 10272 10272 10271 10269 10267 10264 10261 10257 10254 10250 10245
9974 9974 9974 9976 9975 9973 9976 9978 9981 9987 9992 9997 10002 10008 10018 10031 10043 10051 10059 10072 10087 10100 10113 10130 10149 10163 10171 10180 10190 10199 10208 10215 10221 10228 10237 10242 10245 10250 10254 10258 10261 10263 10264 10265 10266 10266 10265 10263 10262 10259 10256 10253 10250 10246
9963 9963 9963 9968 9966 9964 9967 9971 9975 9980 9984 9988 9995 10004 10015 10024 10031 10043 10061 10072 10080 10091 10105 10123 10137 10147 10156 10169 10180 10190 10198 10205 10213 10219 10224 10229 10234 10240 10245 10249 10252 10255 10257 10258 10259 10259 10259 10258 10257 10256 10254 10251 10249 10245
9950 9951 9952 9956 9955 9956 9957 9960 9963 9967 9972 9980 9988 9994 10002 10009 10021 10036 10047 10059 10072 10082 10096 10114 10124 10134 10144 10157 10169 10179 10185 10192 10198 10205 10210 10217 10226 10230 10235 10239 10243 10246 10248 10250 10251 10252 10252 10252 10251 10251 10250 10248 10246 10243
9938 9940 9940 9942 9943 9942 9942 9946 9948 9953 9961 9969 9979 9989 9995 10004 10020 10029 10040 10050 10062 10074 10089 10102 10114 10125 10136 10147 10158 10166 10173 10181 10189 10196 10203 10209 10214 10221 10225 10227 10231 10235 10238 10241 10242 10244 10244 10245 10245 10244 10244 10243 10241 10239
9924 9926 9926 9928 9928 9926 9928 9932 9937 9944 9953 9962 9970 9980 9986 9997 10012 10024 10035 10043 10054 10066 10078 10090 10101 10111 10121 10131 10140 10150 10159 10167 10174 10182 10188 10197 10204 10207 10209 10215 10221 10225 10227 10230 10232 10234 10235 10236 10236 10236 10236 10235 10234 10233
9911 9911 9912 9913 9913 9912 9915 9920 9926 9935 9943 9952 9961 9969 9975 9986 9998 10010 10020 10030 10042 10054 10064 10077 10088 10097 10108 10118 10128 10137 10146 10155 10163 10170 10177 10184 10190 10194 10199 10203 10207 10212 10216 10219 10222 10224 10225 10226 10227 10227 10227 10227 10226 10226
9894 9895 9896 9896 9897 9900 9903 9908 9915 9922 9931 9939 9946 9956 9963 9971 9984 9996 10008 10019 10031 10041 10052 10064 10077 10087 10096 10105 10114 10123 10132 10140 10148 10156 10163 10169 10176 10181 10186 10191 10195 10200 10204 10207 10210 10212 10214 10216 10217 10217 10217 10217 10217 10217